Location: Innerarity Island Observatory
(30.3139°N, 87.4867°W)
Time: 06:37:41
(UTC-05:00)

Amateur Radio Satellites - All Passes

Search period start: 01 July 2016 06:07
Search period end: 02 July 2016 06:07
Location: Innerarity Island Observatory, 30.3139°N, 87.4867°W

Satellite Date Start Highest point End Downlink Frequencies (MHz)
Time Altitude Azimuth
NOAA 18 01 Jul 06:18:03 06:22:44 27° 98° (E) 06:27:23 137.9125
ISS 01 Jul 06:29:24 06:32:18 31° 129° (SE) 06:35:13 145.825
Cosmos 2499 01 Jul 06:30:39 06:39:16 78° 267° (W) 06:47:15 435.465 / 435.565
CUTE-I 01 Jul 06:33:36 06:38:32 36° 99° (E) 06:43:25 437.470
DANDE 01 Jul 06:34:21 06:40:13 22° 87° (E) 06:45:53 436.750
GONETS M04 01 Jul 06:37:04 06:45:20 49° 270° (W) 06:53:38
PHONESAT 2.4 01 Jul 06:38:09 06:40:23 18° 345° (NNW) 06:42:36 2401.200-2431.200
NOAA 15 01 Jul 06:52:04 06:57:21 82° 104° (ESE) 07:02:34 137.62
STRAND 1 01 Jul 06:53:03 06:57:46 38° 72° (ENE) 07:02:31 437.568
LilacSat-2 01 Jul 06:54:44 06:58:36 65° 100° (E) 07:02:27 437.200
BRITE-PL 01 Jul 07:05:58 07:10:04 59° 284° (WNW) 07:14:19 437.365/2234.400
GOMX 1 01 Jul 07:24:26 07:28:45 89° 108° (ESE) 07:33:19 467.674
CUSAT 1 01 Jul 07:25:19 07:33:13 77° 277° (W) 07:39:57 437.405
AO-85 01 Jul 07:33:06 07:35:44 16° 253° (WSW) 07:38:15 145.980
Cubesat XI-IV 01 Jul 07:39:56 07:45:04 47° 287° (WNW) 07:50:11 437.490
HO-68 01 Jul 07:40:31 07:45:30 20° 95° (E) 07:50:27 435.675
PRISM 01 Jul 07:47:05 07:49:42 16° 70° (ENE) 07:52:18 437.425
NOAA 18 01 Jul 07:58:29 08:03:16 30° 290° (WNW) 08:08:02 137.9125
ISS 01 Jul 08:06:30 08:08:46 17° 323° (NW) 08:11:02 145.825
DOVE 4 01 Jul 08:09:52 08:14:17 63° 284° (WNW) 08:18:58 437.250
DANDE 01 Jul 08:14:06 08:22:28 69° 278° (W) 08:30:20 436.750
CUTE-I 01 Jul 08:14:16 08:18:17 22° 292° (WNW) 08:22:17 437.470
PHONESAT 2.4 01 Jul 08:16:21 08:17:44 12° 2° (N) 08:19:08 2401.200-2431.200
CUBEBUG 2 01 Jul 08:23:31 08:25:28 12° 93° (E) 08:27:26 437.445
STRAND 1 01 Jul 08:33:29 08:37:00 18° 265° (W) 08:40:31 437.568
COMPASS 1 01 Jul 08:38:34 08:42:04 26° 97° (E) 08:45:32 437.405
CINEMA 3 01 Jul 08:43:47 08:48:29 84° 101° (E) 08:53:22 145.822/145.860
CANX-2 01 Jul 08:47:51 08:52:08 87° 281° (WNW) 08:56:23 2200.000
AUBIESAT-1 01 Jul 08:58:59 09:00:35 12° 100° (E) 09:02:13 437.475
RS-15 01 Jul 09:02:26 09:03:21 10° 96° (E) 09:04:16 29.354- 29.394
UWE-3 01 Jul 09:02:57 09:06:45 25° 96° (E) 09:10:33 435.000/436.395/437.385
SEEDS 01 Jul 09:05:45 09:09:59 88° 288° (WNW) 09:14:10 437.485
CUTE 1.7 + AOD 2 01 Jul 09:07:20 09:11:32 57° 284° (WNW) 09:15:41 437.475
CUSAT 1 01 Jul 09:14:38 09:15:38 10° 288° (WNW) 09:16:37 437.405
PRISM 01 Jul 09:21:06 09:24:44 29° 262° (W) 09:28:21 437.425
TIGRISAT 01 Jul 09:25:00 09:26:29 12° 67° (ENE) 09:27:59 435.000
HO-68 01 Jul 09:26:26 09:33:29 60° 289° (WNW) 09:40:31 435.675
UNISAT 6 01 Jul 09:30:09 09:32:34 15° 69° (ENE) 09:35:01 437.425
AAUSAT CUBESAT 2 01 Jul 09:36:17 09:40:25 68° 283° (WNW) 09:44:30 437.432
M-CUBED/EXP-1 PRIME 01 Jul 09:38:40 09:42:40 48° 105° (ESE) 09:46:57 437.505
PHONESAT 2.4 01 Jul 09:52:31 09:55:02 23° 18° (NNE) 09:57:34 2401.200-2431.200
CUBEBUG 2 01 Jul 09:57:42 10:02:13 48° 285° (WNW) 10:06:47 437.445
PCSat 01 Jul 10:01:43 10:04:30 14° 53° (NE) 10:07:17 145.827
DANDE 01 Jul 10:04:23 10:06:08 11° 292° (WNW) 10:07:51 436.750
Cosmos 2491 01 Jul 10:07:12 10:09:47 11° 67° (ENE) 10:12:21 435.465 / 435.565
ANTELSAT 01 Jul 10:07:57 10:12:00 42° 74° (ENE) 10:16:09 437.575/2403.000
ZACube-1 01 Jul 10:10:35 10:15:11 81° 282° (WNW) 10:19:46 437.345
COMPASS 1 01 Jul 10:14:33 10:17:24 18° 289° (WNW) 10:20:12 437.405
Oscar 11 01 Jul 10:14:43 10:19:01 66° 284° (WNW) 10:23:18 145.826/435.025
FUNcube-1 01 Jul 10:26:33 10:31:01 55° 284° (WNW) 10:35:29 145.935
AUBIESAT-1 01 Jul 10:31:07 10:35:03 44° 289° (WNW) 10:39:14 437.475
BEESAT 3 01 Jul 10:38:33 10:41:40 22° 56° (ENE) 10:44:47 437.485
UWE-3 01 Jul 10:39:18 10:43:02 24° 288° (WNW) 10:46:48 435.000/436.395/437.385
NANOSAT C BR1 01 Jul 10:39:58 10:41:49 13° 68° (ENE) 10:43:39 145.865
QB50P1 01 Jul 10:44:06 10:46:34 15° 70° (ENE) 10:49:03 145.935-145.965
POPSAT HIP 1 01 Jul 10:47:24 10:50:04 17° 70° (ENE) 10:52:44 437.405
HUMSAT D 01 Jul 10:57:01 11:01:19 73° 100° (E) 11:05:35 437.325/437.525
DUCHIFAT 1 01 Jul 10:57:42 11:00:44 20° 71° (ENE) 11:03:47 145.980
DELFI C3 01 Jul 10:57:44 11:01:29 41° 285° (WNW) 11:05:12 145.870
TIGRISAT 01 Jul 10:58:36 11:02:41 44° 261° (W) 11:06:52 435.000
QB50P2 01 Jul 10:59:38 11:03:06 26° 72° (ENE) 11:06:35 145.880/145.840
POLYITAN 1 01 Jul 11:02:14 11:05:44 26° 72° (ENE) 11:09:14 437.675
RS-15 01 Jul 11:02:24 11:13:31 72° 112° (ESE) 11:25:16 29.354- 29.394
UNISAT 6 01 Jul 11:05:01 11:08:55 35° 262° (W) 11:12:56 437.425
JAS-2 01 Jul 11:05:39 11:08:30 13° 64° (ENE) 11:11:17 435.910
M-CUBED/EXP-1 PRIME 01 Jul 11:15:27 11:16:51 12° 295° (WNW) 11:18:18 437.505
BEESAT 2 01 Jul 11:22:08 11:25:51 37° 59° (ENE) 11:29:33 435.950
PHONESAT 2.4 01 Jul 11:28:46 11:31:47 54° 213° (SSW) 11:34:47 2401.200-2431.200
AISAT 01 Jul 11:30:24 11:32:49 15° 95° (E) 11:35:15 437.250
YUBILEINY 01 Jul 11:37:12 11:44:18 29° 85° (E) 11:51:26 435.215
ESTCUBE 1 01 Jul 11:37:50 11:41:49 30° 98° (E) 11:45:44 437.505/2401.250
DX 1 01 Jul 11:39:45 11:41:43 13° 94° (E) 11:43:41 434.975-435.025
BUGSAT 1 01 Jul 11:40:14 11:43:37 27° 73° (ENE) 11:47:00 437.445
PCSat 01 Jul 11:42:58 11:48:20 66° 248° (WSW) 11:53:40 145.827
ANTELSAT 01 Jul 11:47:30 11:48:54 11° 267° (W) 11:50:18 437.575/2403.000
Cosmos 2491 01 Jul 11:59:03 12:07:48 82° 84° (E) 12:16:32 435.465 / 435.565
CUBEBUG 1 01 Jul 12:07:30 12:11:39 45° 100° (E) 12:15:47 437.445
NANOSAT C BR1 01 Jul 12:13:17 12:17:09 38° 261° (W) 12:21:03 145.865
BEESAT 3 01 Jul 12:16:12 12:19:12 21° 250° (WSW) 12:22:11 437.485
QB50P1 01 Jul 12:18:20 12:22:02 31° 262° (W) 12:25:46 145.935-145.965
POPSAT HIP 1 01 Jul 12:21:57 12:25:35 28° 262° (W) 12:29:13 437.405
50 SAT 01 Jul 12:22:27 12:26:08 77° 101° (ESE) 12:29:45 437.505
O/OREOS (USA 219) 01 Jul 12:22:31 12:26:57 59° 70° (ENE) 12:31:23 437.305
VELOX 1 01 Jul 12:23:47 12:28:09 65° 100° (E) 12:32:31 145.980
AIST 2 01 Jul 12:32:38 12:33:44 11° 51° (NE) 12:34:49 435.215
DUCHIFAT 1 01 Jul 12:32:54 12:36:14 23° 263° (W) 12:39:35 145.980
QB50P2 01 Jul 12:35:55 12:38:50 18° 264° (W) 12:41:45 145.880/145.840
Oscar 19 01 Jul 12:37:38 12:41:22 21° 69° (ENE) 12:45:05 437.125/150
POLYITAN 1 01 Jul 12:38:38 12:41:28 18° 264° (W) 12:44:19 437.675
Cosmos 2504 01 Jul 12:42:20 12:48:09 22° 82° (E) 12:54:11 435.465 / 435.565
SPROUT 01 Jul 12:43:16 12:47:22 44° 99° (E) 12:51:28 437.525
JAS-2 01 Jul 12:44:57 12:52:42 84° 76° (ENE) 12:59:48 435.910
UKube-1 01 Jul 12:47:46 12:52:05 75° 103° (ESE) 12:56:22 .
BEESAT 2 01 Jul 13:01:41 13:03:17 12° 252° (WSW) 13:04:54 435.950
AISAT 01 Jul 13:05:20 13:09:20 35° 287° (WNW) 13:13:21 437.250
DX 1 01 Jul 13:13:58 13:17:59 39° 287° (WNW) 13:22:01 434.975-435.025
ESTCUBE 1 01 Jul 13:15:18 13:18:20 18° 290° (WNW) 13:21:21 437.505/2401.250
BUGSAT 1 01 Jul 13:16:31 13:18:57 16° 264° (W) 13:21:24 437.445
RS-15 01 Jul 13:17:16 13:26:54 30° 314° (NW) 13:37:02 29.354- 29.394
Gurwin Techsat 1B 01 Jul 13:19:44 13:23:50 23° 69° (ENE) 13:27:55 435.225
JUGNU 01 Jul 13:21:49 13:26:13 21° 167° (SSE) 13:30:37 437.505
YUBILEINY 01 Jul 13:32:20 13:40:36 48° 281° (W) 13:48:59 435.215
CUBEBUG 1 01 Jul 13:45:58 13:47:29 12° 292° (WNW) 13:48:59 437.445
TISAT 1 01 Jul 13:51:37 13:55:50 69° 102° (ESE) 14:00:02 437.305
Cosmos 2491 01 Jul 13:59:06 14:03:29 15° 279° (W) 14:07:52 435.465 / 435.565
AIST 2 01 Jul 14:08:26 14:12:30 55° 246° (WSW) 14:16:33 435.215
SWISSCUBE 01 Jul 14:15:10 14:18:49 22° 96° (E) 14:22:26 437.505
Oscar 19 01 Jul 14:15:41 14:20:23 36° 261° (W) 14:25:05 437.125/150
SPROUT 01 Jul 14:21:21 14:22:52 12° 292° (WNW) 14:24:22 437.525
SO-50 01 Jul 14:27:57 14:32:38 49° 114° (ESE) 14:37:21 436.795
AO-7 01 Jul 14:29:41 14:36:12 26° 62° (ENE) 14:42:44 29.400- 29.500
Cosmos 2504 01 Jul 14:32:46 14:40:40 60° 279° (W) 14:49:11 435.465 / 435.565
JAS-2 01 Jul 14:34:19 14:37:59 14° 267° (W) 14:41:32 435.910
ISS 01 Jul 14:37:37 14:40:32 30° 41° (NE) 14:43:27 145.825
BEESAT 01 Jul 14:39:25 14:43:50 36° 99° (E) 14:48:13 436.000
ITUPSAT 1 01 Jul 14:42:36 14:47:05 39° 99° (E) 14:51:33 437.325
SRMSAT 01 Jul 14:43:27 14:46:52 16° 163° (SSE) 14:50:17 437.500
ITAMSAT 1 01 Jul 14:44:49 14:49:54 56° 74° (ENE) 14:55:01 435.822/435.867
Gurwin Techsat 1B 01 Jul 14:58:46 15:03:31 33° 262° (W) 15:08:18 435.225
JUGNU 01 Jul 15:09:37 15:14:45 30° 177° (S) 15:19:52 437.505
SWISSCUBE 01 Jul 15:52:26 15:56:32 29° 289° (WNW) 16:00:36 437.505
SO-50 01 Jul 16:10:14 16:13:21 17° 308° (NW) 16:16:28 436.795
KKS-1 01 Jul 16:11:52 16:16:04 40° 100° (E) 16:20:15 437.445
ISS 01 Jul 16:14:42 16:16:46 16° 234° (SW) 16:18:49 145.825
BEESAT 01 Jul 16:18:09 16:21:16 18° 292° (WNW) 16:24:23 436.000
AO-7 01 Jul 16:20:13 16:28:22 58° 257° (WSW) 16:36:35 29.400- 29.500
ITUPSAT 1 01 Jul 16:21:34 16:24:33 17° 292° (WNW) 16:27:32 437.325
MOZHAYETS 4 01 Jul 16:26:11 16:30:45 57° 100° (E) 16:35:15
ITAMSAT 1 01 Jul 16:27:26 16:29:37 13° 266° (W) 16:31:48 435.822/435.867
HORYU 2 01 Jul 16:29:37 16:33:34 33° 72° (ENE) 16:37:33 437.375
SRMSAT 01 Jul 16:30:36 16:35:30 26° 172° (S) 16:40:24 437.500
STARS 01 Jul 16:34:57 16:39:00 35° 99° (E) 16:43:02 437.465
JUGNU 01 Jul 16:58:20 17:03:19 27° 187° (S) 17:08:16 437.505
Cosmos 2499 01 Jul 17:10:31 17:14:43 15° 80° (E) 17:19:01 435.465 / 435.565
AIST 1 01 Jul 17:12:50 17:16:58 45° 278° (W) 17:21:06
Cubesat XI-IV 01 Jul 17:18:28 17:21:38 16° 66° (ENE) 17:24:49 437.490
LilacSat-2 01 Jul 17:32:46 17:34:46 14° 70° (ENE) 17:36:45 437.200
GONETS M04 01 Jul 17:34:36 17:42:29 40° 88° (E) 17:50:20
NOAA 18 01 Jul 17:38:49 17:43:30 30° 69° (ENE) 17:48:12 137.9125
CUTE-I 01 Jul 17:49:51 17:54:37 34° 71° (ENE) 17:59:25 437.470
KKS-1 01 Jul 17:49:59 17:52:14 14° 292° (WNW) 17:54:30 437.445
RS-15 01 Jul 18:01:26 18:06:49 13° 28° (NNE) 18:12:12 29.354- 29.394
CUBESAT XI-V 01 Jul 18:02:55 18:07:31 73° 101° (ESE) 18:12:05 437.345
NOAA 15 01 Jul 18:06:16 18:11:32 74° 75° (ENE) 18:16:49 137.62
MOZHAYETS 4 01 Jul 18:06:25 18:07:20 11° 293° (WNW) 18:08:16
HORYU 2 01 Jul 18:07:26 18:10:09 16° 265° (W) 18:12:51 437.375
CUSAT 1 01 Jul 18:09:35 18:12:12 27° 77° (ENE) 18:14:33 437.405
BRITE-PL 01 Jul 18:10:25 18:15:31 80° 77° (ENE) 18:20:14 437.365/2234.400
STARS 01 Jul 18:12:26 18:15:01 15° 291° (WNW) 18:17:36 437.465
SRMSAT 01 Jul 18:19:05 18:24:12 30° 182° (S) 18:29:19 437.500
GOMX 1 01 Jul 18:27:04 18:31:31 48° 76° (ENE) 18:35:44 467.674
JUGNU 01 Jul 18:48:08 18:51:47 17° 196° (SSW) 18:55:27 437.505
Cubesat XI-IV 01 Jul 18:56:04 19:01:13 50° 260° (W) 19:06:25 437.490
Cosmos 2499 01 Jul 18:58:18 19:06:32 84° 276° (W) 19:15:22 435.465 / 435.565
DANDE 01 Jul 19:04:00 19:07:56 58° 79° (ENE) 19:10:59 436.750
LilacSat-2 01 Jul 19:05:33 19:08:47 27° 263° (W) 19:12:02 437.200
DOVE 4 01 Jul 19:09:55 19:14:13 65° 77° (ENE) 19:18:22 437.250
STRAND 1 01 Jul 19:09:59 19:13:51 21° 96° (E) 19:17:41 437.568
NOAA 18 01 Jul 19:19:30 19:24:02 27° 262° (W) 19:28:37 137.9125
CUTE-I 01 Jul 19:30:32 19:34:38 22° 264° (W) 19:38:46 437.470
GONETS M04 01 Jul 19:31:29 19:39:11 35° 283° (WNW) 19:46:55
CANX-2 01 Jul 19:35:01 19:38:46 30° 73° (ENE) 19:42:33 2200.000
CINEMA 3 01 Jul 19:40:29 19:44:14 34° 74° (ENE) 19:48:00 145.822/145.860
HO-68 01 Jul 19:48:09 19:55:07 58° 71° (ENE) 20:02:07 435.675
SEEDS 01 Jul 19:51:55 19:55:35 29° 73° (ENE) 19:59:16 437.485
CUTE 1.7 + AOD 2 01 Jul 19:53:58 19:58:01 45° 75° (ENE) 20:02:08 437.475
AO-85 01 Jul 19:58:46 20:03:55 46° 113° (ESE) 20:09:01 145.980
SRMSAT 01 Jul 20:08:24 20:12:54 22° 192° (SSW) 20:17:22 437.500
GOMX 1 01 Jul 20:08:41 20:09:41 11° 265° (W) 20:10:41 467.674
RS-15 01 Jul 20:11:27 20:23:21 50° 55° (NE) 20:35:00 29.354- 29.394
AAUSAT CUBESAT 2 01 Jul 20:20:44 20:24:32 34° 74° (ENE) 20:28:21 437.432
M-CUBED/EXP-1 PRIME 01 Jul 20:21:50 20:24:04 17° 67° (ENE) 20:26:19 437.505
STRAND 1 01 Jul 20:48:24 20:53:00 34° 289° (WNW) 20:57:34 437.568
CUBEBUG 2 01 Jul 20:49:59 20:54:06 68° 77° (ENE) 20:58:20 437.445
Cosmos 2499 01 Jul 20:57:35 21:00:55 13° 293° (WNW) 21:04:20 435.465 / 435.565
COMPASS 1 01 Jul 20:58:02 21:02:10 56° 260° (W) 21:06:19 437.405
ZACube-1 01 Jul 21:00:53 21:04:43 36° 74° (ENE) 21:08:39 437.345
Oscar 11 01 Jul 21:03:31 21:07:37 43° 75° (ENE) 21:11:44 145.826/435.025
PRISM 01 Jul 21:07:43 21:11:43 56° 100° (E) 21:15:42 437.425
CANX-2 01 Jul 21:11:58 21:14:37 16° 265° (W) 21:17:16 2200.000
AUBIESAT-1 01 Jul 21:12:33 21:15:50 87° 73° (ENE) 21:19:10 437.475
FUNcube-1 01 Jul 21:16:09 21:20:14 53° 75° (ENE) 21:24:24 145.935
CINEMA 3 01 Jul 21:19:40 21:21:27 13° 266° (W) 21:23:16 145.822/145.860
SEEDS 01 Jul 21:28:32 21:31:15 17° 265° (W) 21:33:59 437.485
UWE-3 01 Jul 21:29:49 21:33:54 56° 260° (W) 21:38:06 435.000/436.395/437.385
CUTE 1.7 + AOD 2 01 Jul 21:33:12 21:34:01 10° 267° (W) 21:34:50 437.475
DELFI C3 01 Jul 21:37:29 21:41:20 46° 75° (ENE) 21:45:13 145.870
HO-68 01 Jul 21:38:05 21:43:05 20° 265° (W) 21:48:08 435.675
AO-85 01 Jul 21:40:31 21:44:34 21° 306° (NW) 21:48:34 145.980
HUMSAT D 01 Jul 21:43:10 21:46:27 23° 72° (ENE) 21:49:46 437.325/437.525
M-CUBED/EXP-1 PRIME 01 Jul 21:56:39 21:58:33 15° 259° (W) 22:00:27 437.505
AAUSAT CUBESAT 2 01 Jul 21:58:00 22:00:04 13° 266° (W) 22:02:08 437.432
SRMSAT 01 Jul 22:00:15 22:01:28 11° 200° (SSW) 22:02:41 437.500
ANTELSAT 01 Jul 22:06:19 22:09:09 16° 95° (E) 22:11:58 437.575/2403.000
RS-15 01 Jul 22:24:20 22:35:33 43° 254° (WSW) 22:46:34 29.354- 29.394
ESTCUBE 1 01 Jul 22:33:01 22:35:36 15° 69° (ENE) 22:38:10 437.505/2401.250
ZACube-1 01 Jul 22:39:10 22:41:06 13° 267° (W) 22:43:04 437.345
Oscar 11 01 Jul 22:42:29 22:43:53 11° 267° (W) 22:45:16 145.826/435.025
TIGRISAT 01 Jul 22:55:15 22:59:53 57° 101° (E) 23:04:30 435.000
50 SAT 01 Jul 22:56:07 22:58:10 14° 70° (ENE) 23:00:13 437.505
CUBEBUG 1 01 Jul 22:58:45 23:01:47 19° 70° (ENE) 23:04:49 437.445
Cosmos 2491 01 Jul 23:00:20 23:05:31 17° 82° (E) 23:10:39 435.465 / 435.565
UNISAT 6 01 Jul 23:01:36 23:06:18 74° 101° (ESE) 23:10:59 437.425
SO-50 01 Jul 23:08:21 23:08:49 10° 48° (NE) 23:09:16 436.795
VELOX 1 01 Jul 23:15:48 23:19:32 28° 72° (ENE) 23:23:16 145.980
HUMSAT D 01 Jul 23:18:49 23:21:57 20° 264° (W) 23:25:06 437.325/437.525
SPROUT 01 Jul 23:32:24 23:35:05 17° 70° (ENE) 23:37:47 437.525
UKube-1 01 Jul 23:36:55 23:40:39 29° 72° (ENE) 23:44:22 .
ANTELSAT 01 Jul 23:41:34 23:45:54 38° 286° (WNW) 23:50:14 437.575/2403.000
YUBILEINY 01 Jul 23:49:03 23:57:52 67° 83° (E) 00:06:37 435.215
AISAT 01 Jul 23:56:21 00:00:45 86° 258° (WSW) 00:05:10 437.250
NANOSAT C BR1 02 Jul 00:02:57 00:07:05 50° 100° (E) 00:11:13 145.865
DX 1 02 Jul 00:03:11 00:07:31 83° 77° (ENE) 00:11:52 434.975-435.025
ESTCUBE 1 02 Jul 00:07:48 00:12:01 38° 261° (W) 00:16:16 437.505/2401.250
QB50P1 02 Jul 00:08:04 00:12:18 62° 101° (ESE) 00:16:31 145.935-145.965
POPSAT HIP 1 02 Jul 00:11:38 00:15:53 68° 101° (ESE) 00:20:08 437.405
DUCHIFAT 1 02 Jul 00:21:35 00:25:50 82° 102° (ESE) 00:30:06 145.980
BEESAT 3 02 Jul 00:24:49 00:26:59 14° 109° (ESE) 00:29:10 437.485
QB50P2 02 Jul 00:24:56 00:29:12 74° 284° (WNW) 00:33:28 145.880/145.840
POLYITAN 1 02 Jul 00:27:34 00:31:50 72° 284° (WNW) 00:36:06 437.675
50 SAT 02 Jul 00:28:28 00:31:34 25° 262° (W) 00:34:42 437.505
Cosmos 2504 02 Jul 00:32:48 00:40:53 39° 77° (ENE) 00:48:30 435.465 / 435.565
CUBEBUG 1 02 Jul 00:34:07 00:37:50 27° 262° (W) 00:41:33 437.445
TIGRISAT 02 Jul 00:34:41 00:36:01 11° 293° (WNW) 00:37:21 435.000
PCSat 02 Jul 00:35:53 00:40:48 37° 108° (ESE) 00:45:45 145.827
TISAT 1 02 Jul 00:38:16 00:41:33 23° 72° (ENE) 00:44:50 437.305
SO-50 02 Jul 00:45:13 00:49:49 74° 244° (WSW) 00:54:14 436.795
O/OREOS (USA 219) 02 Jul 00:52:06 00:54:23 14° 99° (E) 00:56:39 437.305
Cosmos 2491 02 Jul 00:52:34 01:01:19 74° 277° (W) 01:10:04 435.465 / 435.565
VELOX 1 02 Jul 00:52:49 00:55:56 19° 264° (W) 00:59:04 145.980
Oscar 19 02 Jul 00:56:59 00:57:59 11° 93° (E) 00:58:59 437.125/150
BUGSAT 1 02 Jul 01:01:54 01:06:02 74° 282° (WNW) 01:10:12 437.445
SPROUT 02 Jul 01:07:02 01:10:46 29° 262° (W) 01:14:29 437.525
BEESAT 2 02 Jul 01:08:55 01:12:14 26° 111° (ESE) 01:15:34 435.950
UKube-1 02 Jul 01:13:49 01:16:38 17° 264° (W) 01:19:29 .
SWISSCUBE 02 Jul 01:17:23 01:19:46 14° 67° (ENE) 01:22:08 437.505
BEESAT 02 Jul 01:40:44 01:44:25 23° 70° (ENE) 01:48:07 436.000
NANOSAT C BR1 02 Jul 01:41:46 01:42:20 10° 293° (WNW) 01:42:53 145.865
Gurwin Techsat 1B 02 Jul 01:42:34 01:45:19 14° 94° (E) 01:48:04 435.225
ITUPSAT 1 02 Jul 01:44:10 01:48:00 24° 70° (ENE) 01:51:51 437.325
JAS-2 02 Jul 01:47:01 01:52:18 63° 285° (WNW) 01:57:23 435.910
YUBILEINY 02 Jul 01:47:54 01:53:44 20° 278° (W) 01:59:36 435.215
BEESAT 3 02 Jul 02:00:52 02:04:20 30° 301° (WNW) 02:07:51 437.485
TISAT 1 02 Jul 02:14:00 02:17:05 20° 264° (W) 02:20:10 437.305
PCSat 02 Jul 02:19:57 02:24:13 23° 303° (WNW) 02:28:31 145.827
Cosmos 2504 02 Jul 02:26:19 02:34:01 36° 274° (W) 02:41:20 435.465 / 435.565
O/OREOS (USA 219) 02 Jul 02:29:13 02:33:23 37° 292° (WNW) 02:37:33 437.305
Oscar 19 02 Jul 02:32:32 02:37:37 63° 285° (WNW) 02:42:40 437.125/150
BEESAT 2 02 Jul 02:47:14 02:50:01 18° 305° (NW) 02:52:49 435.950
SWISSCUBE 02 Jul 02:52:29 02:57:05 48° 260° (W) 03:01:43 437.505
ITAMSAT 1 02 Jul 03:03:50 03:08:30 32° 98° (E) 03:13:06 435.822/435.867
KKS-1 02 Jul 03:05:14 03:08:19 19° 70° (ENE) 03:11:24 437.445
BEESAT 02 Jul 03:17:56 03:22:00 28° 262° (W) 03:26:06 436.000
Gurwin Techsat 1B 02 Jul 03:20:19 03:25:28 52° 286° (WNW) 03:30:36 435.225
ITUPSAT 1 02 Jul 03:21:40 03:25:40 26° 263° (W) 03:29:41 437.325
MOZHAYETS 4 02 Jul 03:22:38 03:26:32 28° 72° (ENE) 03:30:29
AIST 1 02 Jul 03:26:08 03:29:32 23° 79° (ENE) 03:32:55
STARS 02 Jul 03:27:18 03:29:53 16° 69° (ENE) 03:32:30 437.465
GONETS M04 02 Jul 03:54:34 03:58:22 13° 68° (ENE) 04:02:09
PHONESAT 2.4 02 Jul 03:56:34 03:59:27 38° 145° (SE) 04:02:19 2401.200-2431.200
AIST 2 02 Jul 04:00:13 04:04:16 65° 298° (WNW) 04:08:23 435.215
AO-7 02 Jul 04:28:07 04:36:29 72° 105° (ESE) 04:44:48 29.400- 29.500
KKS-1 02 Jul 04:40:49 04:44:38 28° 262° (W) 04:48:27 437.445
ITAMSAT 1 02 Jul 04:43:40 04:47:42 23° 291° (WNW) 04:51:44 435.822/435.867
Cosmos 2499 02 Jul 04:58:14 05:05:09 27° 73° (ENE) 05:11:40 435.465 / 435.565
MOZHAYETS 4 02 Jul 05:00:09 05:03:37 21° 264° (W) 05:07:07
CUBESAT XI-V 02 Jul 05:00:28 05:04:45 36° 73° (ENE) 05:09:02 437.345
STARS 02 Jul 05:02:00 05:05:56 33° 262° (W) 05:09:52 437.465
AIST 1 02 Jul 05:03:54 05:06:55 19° 271° (W) 05:09:56
CUSAT 1 02 Jul 05:26:16 05:27:16 10° 87° (E) 05:28:16 437.405
PHONESAT 2.4 02 Jul 05:33:25 05:36:05 27° 339° (NNW) 05:38:47 2401.200-2431.200
ISS 02 Jul 05:37:57 05:39:41 14° 126° (SE) 05:41:26 145.825
GONETS M04 02 Jul 05:47:26 05:56:13 88° 80° (E) 06:05:01
